Location: *
(50.8512°N, 5.6907°E)
Time: 18:00:46
(UTC+00:00)

SL-16 R/B - Pass Details

Date: 09 April 2020
Orbit: 842 x 846 km, 71.0° (Epoch: 28 May)

Event Time Altitude Azimuth Distance (km) Brightness Sun altitude
Rises 19:43:11 0° 327° (NNW) 3,415 6.6 -12.5°
Reaches altitude 10° 19:47:13 10° 355° (N) 2,478 5.1 -13.0°
Maximum altitude 19:49:46 13° 22° (NNE) 2,269 4.5 -13.3°
Drops below altitude 10° 19:52:19 10° 49° (NE) 2,476 4.5 -13.7°
Enters shadow 19:54:59 - 69° (ENE) 3,045 4.7 -14.0°
